Dayton, OH

5:15 PM EST on February 19, 2017 (GMT -0500)
Wright-Patterson Air Force Base

Weather History for KFFO - January, 2012

Change the Weather History Date:

Saturday, January 14, 2012

  Actual Average Record
Temperature  
Mean Temperature 20 °F -  
Max Temperature 25 °F 32 °F 50 °F (2002)
Min Temperature 15 °F 17 °F 0 °F (1997)
Degree Days  
Heating Degree Days 44    
Moisture  
Dew Point 12 °F    
Average Humidity 74    
Maximum Humidity 86    
Minimum Humidity 58    
Precipitation  
Precipitation 0.00 in - - ()
Snow  
Snow 0.00 in - - ()
Snow Depth 1.00 in    
Sea Level Pressure  
Sea Level Pressure 30.16 in    
Wind  
Wind Speed 7 mph (WSW)    
Max Wind Speed 12 mph    
Max Gust Speed -    
Visibility 10 miles    
Events Snow    
Averages and records for this station are not official NWS values.
T = Trace of Precipitation, MM = Missing Value Source: NWS Daily Summary

Daily Weather History Graph

Daily Weather History Graph

Search for Another Location

Airport or City:

Trip Planner

Search our weather history database for the weather conditions in past years. The results will help you decide how hot, cold, wet, or windy it might be!

Date:

Astronomy

Jan. 14, 2012 Rise Set
Actual Time 7:56 AM EST 5:34 PM EST
Civil Twilight 7:26 AM EST 6:04 PM EST
Nautical Twilight 6:53 AM EST 6:37 PM EST
Astronomical Twilight 6:20 AM EST 7:09 PM EST
Moon 11:53 PM EST (1/14) 10:41 AM EST (1/14)
Length of Visible Light 10h 37m
Length of Day
9h 38m
Waning Gibbous, 69% of the Moon is Illuminated
Jan 14
Waning Gibbous
Jan 16
Last Quarter
Jan 23
New
Jan 30
First Quarter
Feb 7
Full

Hourly Weather History & Observations

Time (EST) Temp. Windchill Dew Point Humidity Pressure Visibility Wind Dir Wind Speed Gust Speed Precip Events Conditions
12:55 AM 18.3 °F 7.3 °F 13.6 °F 82% 30.12 in 10.0 mi WSW 9.2 mph - 0.00 in Snow Light Snow
1:55 AM 18.3 °F 6.6 °F 14.0 °F 83% 30.12 in 10.0 mi WSW 10.4 mph - 0.00 in Snow Light Snow
2:55 AM 18.3 °F 5.9 °F 13.5 °F 81% 30.13 in 10.0 mi WSW 11.5 mph - 0.00 in Snow Light Snow
3:55 AM 18.3 °F 5.9 °F 12.9 °F 79% 30.13 in 10.0 mi WSW 11.5 mph - 0.00 in Snow Light Snow
4:12 AM 17.6 °F 7.3 °F 12.2 °F 79% 30.14 in 10.0 mi WSW 8.1 mph - N/A   Overcast
4:28 AM 17.6 °F 8.2 °F 14.0 °F 86% 30.13 in 10.0 mi WSW 6.9 mph - N/A Snow Light Snow
4:29 AM 17.6 °F 8.2 °F 14.0 °F 86% 30.13 in 10.0 mi WSW 6.9 mph - N/A   Light Freezing Drizzle
4:55 AM 18.3 °F 7.3 °F 13.5 °F 81% 30.13 in 10.0 mi WSW 9.2 mph - 0.00 in Snow Light Snow
5:55 AM 18.1 °F 7.1 °F 13.1 °F 81% 30.18 in 10.0 mi WSW 9.2 mph - 0.00 in Snow Light Snow
6:55 AM 18.0 °F 9.8 °F 11.1 °F 75% 30.15 in 10.0 mi West 5.8 mph - 0.00 in Snow Light Snow
7:00 AM 17.6 °F 8.2 °F 12.2 °F 79% 30.15 in 10.0 mi WSW 6.9 mph - N/A   Overcast
7:55 AM 18.0 °F 8.7 °F 10.4 °F 72% 30.16 in 10.0 mi WSW 6.9 mph - 0.00 in   Overcast
8:55 AM 18.0 °F 9.8 °F 10.4 °F 72% 30.18 in 10.0 mi WSW 5.8 mph - N/A   Overcast
9:55 AM 18.9 °F 8.0 °F 10.6 °F 70% 30.19 in 10.0 mi SW 9.2 mph - N/A   Overcast
10:55 AM 19.8 °F 9.9 °F 10.6 °F 68% 30.19 in 10.0 mi WSW 8.1 mph - N/A   Overcast
11:55 AM 20.3 °F 10.6 °F 11.3 °F 68% 30.17 in 10.0 mi WSW 8.1 mph - N/A   Overcast
12:55 PM 21.2 °F 10.9 °F 12.4 °F 69% 30.16 in 10.0 mi SW 9.2 mph - N/A   Overcast
1:55 PM 21.9 °F 14.5 °F 12.7 °F 68% 30.14 in 10.0 mi SW 5.8 mph - N/A   Overcast
2:33 PM 23.0 °F 17.0 °F 12.2 °F 63% 30.13 in 10.0 mi SSW 4.6 mph - N/A   Mostly Cloudy
2:55 PM 22.6 °F - 12.2 °F 64% 30.12 in 10.0 mi Calm Calm - N/A   Mostly Cloudy
3:22 PM 23.0 °F - 12.2 °F 63% 30.13 in 10.0 mi Variable 1.2 mph - N/A   Mostly Cloudy
3:55 PM 25.0 °F - 12.2 °F 58% 30.13 in 10.0 mi Calm Calm - N/A   Mostly Cloudy
4:55 PM 23.4 °F - 12.2 °F 62% 30.14 in 10.0 mi Calm Calm - N/A   Mostly Cloudy
5:55 PM 21.6 °F 15.3 °F 13.3 °F 70% 30.16 in 10.0 mi NE 4.6 mph - N/A   Mostly Cloudy
6:55 PM 21.6 °F 14.0 °F 13.5 °F 71% 30.18 in 10.0 mi NNE 5.8 mph - N/A   Overcast
7:55 PM 20.5 °F 12.8 °F 13.5 °F 74% 30.20 in 10.0 mi NE 5.8 mph - N/A   Mostly Cloudy
8:55 PM 19.8 °F 14.7 °F 13.1 °F 75% 30.22 in 10.0 mi NE 3.5 mph - N/A   Overcast
9:55 PM 16.7 °F 9.6 °F 11.7 °F 81% 30.24 in 10.0 mi NNE 4.6 mph - N/A   Mostly Cloudy
10:55 PM 17.1 °F 10.0 °F 12.6 °F 82% 30.25 in 10.0 mi North 4.6 mph - N/A   Partly Cloudy
11:55 PM 15.1 °F - 10.9 °F 84% 30.27 in 10.0 mi Calm Calm - N/A   Clear